SCP
0 0 0 0 0 0 0 0 0 0 0 0 0 0 0 0 0 0 0 0 0 0 0 0 0 0 0 0 0 0 0 0 0 0 1 1 1 1 1 1 1 1 1 1
0 0 0 0 0 0 0 0 0 0 0 0 0 0 0 0 0 0 0 0 0 0 0 0 0 0 0 0 0 0 0 0 0 0 1 1 1 1 1 1 1 1 1 1
0 0 0 0 0 0 0 0 0 0 0 0 0 0 0 0 0 0 0 0 0 0 0 0 0 0 0 0 0 0 0 0 0 0 1 1 1 1 1 1 1 1 1 1
0 0 0 0 0 0 0 0 0 0 0 0 0 0 0 0 0 0 0 0 0 0 0 0 0 0 0 0 0 0 0 0 0 0 0 1 1 1 1 1 1 1 1 1
0 0 0 0 0 0 0 0 0 0 0 0 0 0 0 0 0 0 0 0 0 0 0 0 0 0 0 0 0 0 0 0 0 0 0 1 1 1 1 1 1 1 1 1
0 0 0 0 0 0 0 0 0 0 0 0 0 0 0 0 0 0 0 0 0 0 0 0 0 0 0 0 0 0 0 0 0 0 0 1 1 1 1 1 1 1 1 1
0 0 0 0 0 0 0 0 0 0 0 0 0 0 0 0 0 0 0 0 0 0 0 0 0 0 0 0 0 0 0 0 0 0 0 1 1 1 0 0 1 1 1 1
0 0 0 0 0 0 0 0 0 0 0 0 0 0 0 0 0 0 0 0 0 0 0 0 0 0 0 0 0 0 0 0 0 0 0 0 0 0 0 0 0 0 0 0
0 0 0 0 0 0 0 0 0 0 0 0 0 0 0 0 0 0 0 0 0 0 0 0 0 0 0 0 0 0 0 0 0 0 0 0 0 0 0 0 0 0 0 0
0 0 0 0 0 0 0 0 0 0 0 0 0 0 0 0 0 0 0 0 0 0 0 0 0 0 0 0 0 0 0 0 0 0 0 0 0 0 0 0 0 0 0 0
0 0 0 0 0 0 0 0 0 0 0 0 0 0 0 0 0 0 0 0 0 0 0 0 0 0 0 0 0 0 0 0 0 0 0 0 0 0 0 0 0 0 0 0
0 0 0 0 0 0 0 0 0 0 0 0 0 0 0 0 0 0 0 0 0 0 0 0 0 0 0 0 0 0 0 0 0 0 0 0 0 0 0 0 0 0 0 0
0 0 0 0 0 0 0 0 0 0 0 0 0 0 0 0 0 0 0 0 0 0 0 0 0 0 0 0 0 0 0 0 0 0 0 0 0 0 0 0 0 0 0 0
0 0 0 0 0 0 0 0 0 0 0 0 0 0 0 0 0 0 0 0 0 0 0 0 0 0 0 0 0 0 0 0 0 0 0 0 0 0 0 0 0 0 0 0
0 0 0 0 0 0 0 0 0 0 0 0 0 0 0 0 0 0 0 0 0 0 0 0 0 0 0 0 0 0 0 0 0 0 0 0 0 0 0 0 0 0 0 0
0 0 0 0 0 0 0 0 0 0 0 0 0 0 0 0 0 0 0 0 0 0 0 0 0 0 0 0 0 0 0 0 0 0 0 0 0 0 0 0 0 0 0 0
0 0 0 0 0 0 0 0 0 0 0 0 0 0 0 0 0 0 0 0 0 0 0 0 0 0 0 0 0 0 0 0 0 0 0 0 0 0 0 0 0 0 0 0
0 0 0 0 0 0 0 0 0 0 0 0 0 0 0 0 0 0 0 0 0 0 0 0 0 0 0 0 0 0 0 0 0 0 0 0 0 0 0 0 0 0 0 0
0 0 0 0 0 0 0 0 0 0 0 0 0 0 0 0 0 0 0 0 0 0 0 0 0 0 0 0 0 0 0 0 0 0 0 0 0 0 0 0 0 0 0 0
0 0 0 0 0 0 0 0 0 0 0 0 0 0 0 0 0 0 0 0 0 0 0 0 0 0 0 0 0 0 0 0 0 0 0 0 0 0 0 0 0 0 0 0
0 0 0 0 0 0 0 0 0 0 0 0 0 0 0 0 0 0 0 0 0 0 0 0 0 0 0 0 0 0 0 0 0 0 0 0 0 0 0 0 0 0 0 0
0 0 0 0 0 0 0 0 0 0 0 0 0 0 0 0 0 0 0 0 0 0 0 0 0 0 0 0 0 0 0 0 0 0 0 0 0 0 0 0 0 0 0 0
0 0 0 0 0 0 0 0 0 0 0 0 0 0 0 0 0 0 0 0 0 0 0 0 0 0 0 0 0 0 0 0 0 0 0 0 0 0 0 0 0 0 0 0
0 0 0 0 0 0 0 0 0 0 0 0 0 0 0 0 0 0 0 0 0 0 0 0 0 0 0 0 0 0 0 0 0 0 0 0 0 0 0 0 0 0 0 0
0 0 0 0 0 0 0 0 0 0 0 0 0 0 0 0 0 0 0 0 0 0 0 0 0 0 0 0 0 0 0 0 0 0 0 0 0 0 0 0 0 0 0 0
0 0 0 0 0 0 0 0 0 0 0 0 0 0 0 0 0 0 0 0 0 0 0 0 0 0 0 0 0 0 0 0 0 0 0 0 0 0 0 0 0 0 0 0
Wind_Speed
2 3 3 3 3 2 1 3 4 3 2 2 3 2 2 2 2 2 3 3 4 5 5 6 6 6 7 7 7 7 7 7 6 4 3 2 2 2 2 2 3 3 2 2
3 3 3 2 2 2 2 3 3 3 2 2 3 1 1 2 2 2 2 3 3 4 5 5 6 6 6 7 7 7 6 6 6 4 3 2 2 1 1 1 2 2 3 2
4 2 1 1 3 3 3 2 2 2 1 2 2 2 4 3 3 2 1 2 3 3 4 4 5 5 5 6 6 6 6 6 6 5 3 3 2 2 2 2 2 2 2 2
4 2 1 3 3 3 2 3 2 3 1 1 2 1 3 4 3 2 0 1 1 2 3 3 4 4 5 5 5 5 6 6 6 5 4 4 3 3 3 2 2 2 2 2
4 3 3 3 3 3 2 1 0 1 1 0 2 2 2 4 3 3 2 1 1 1 2 2 3 3 4 4 4 4 5 5 6 5 5 4 4 3 3 3 3 3 2 2
4 2 3 3 2 1 2 1 1 1 1 2 3 3 2 3 4 3 3 2 1 1 1 2 2 2 3 3 4 4 4 5 5 5 5 5 5 5 5 5 4 3 2 2
3 2 2 1 1 0 1 1 1 1 1 2 2 2 3 2 3 4 4 3 2 1 1 1 2 2 3 3 4 4 4 5 6 5 5 5 5 5 5 5 4 4 3 3
4 2 2 1 1 1 1 1 1 2 2 1 1 3 2 3 4 3 3 3 2 2 1 0 0 1 2 3 3 4 4 5 5 5 5 5 5 4 3 4 4 4 3 3
3 3 3 2 2 2 1 0 1 1 1 1 3 3 1 2 2 2 2 2 2 1 1 1 0 1 1 2 3 3 4 4 5 5 5 5 5 5 4 4 4 3 4 4
2 4 2 1 1 1 2 1 1 1 1 3 3 3 3 3 3 3 3 2 2 1 0 0 0 1 1 2 2 3 3 4 4 5 4 4 5 5 5 4 5 4 4 4
2 4 2 2 2 2 1 1 1 1 1 2 2 2 1 5 5 4 3 3 2 1 1 0 0 1 1 2 2 3 3 4 4 4 4 4 4 4 4 4 5 4 4 4
1 2 2 2 2 2 1 2 2 2 3 2 2 5 1 4 3 3 2 2 2 2 1 0 1 1 2 2 2 3 3 4 4 4 4 4 4 5 5 5 5 4 5 4
3 4 3 0 1 2 3 3 2 1 1 3 3 5 1 2 2 2 2 2 2 2 1 1 0 1 1 2 2 2 3 3 4 4 4 4 5 5 5 5 5 5 5 5
2 2 4 5 2 4 4 5 5 4 4 5 7 6 3 2 1 2 2 2 2 2 1 1 0 1 1 1 2 2 3 3 4 4 4 4 5 5 5 5 5 5 4 5
2 2 2 1 2 1 4 6 8 9 8 7 6 7 8 5 4 3 3 2 2 2 1 1 1 1 1 2 2 2 3 3 4 4 4 4 4 4 5 5 5 5 5 5
2 3 2 2 1 2 5 8 10 11 10 10 9 11 7 3 2 3 3 3 3 3 2 2 1 1 1 2 2 3 3 3 3 3 4 4 4 4 5 5 5 5 5 5
4 5 4 2 0 2 9 13 14 9 9 9 12 12 3 3 4 4 4 4 4 3 3 2 2 2 2 2 2 2 2 3 3 3 4 4 5 5 5 5 5 5 5 4
6 5 3 1 1 8 9 5 10 11 11 11 9 7 5 5 4 3 4 4 4 3 3 2 2 2 1 1 1 2 2 2 3 3 4 4 4 5 5 5 5 5 4 4
4 6 4 3 4 10 5 5 7 8 9 12 13 10 6 2 2 4 3 3 4 4 3 3 2 2 1 1 1 1 2 2 3 3 4 4 4 4 5 5 5 5 5 4
2 3 4 4 5 9 6 5 5 3 8 8 11 10 7 4 3 5 3 3 3 3 3 2 2 2 1 1 0 0 1 2 2 3 4 4 4 4 4 5 5 5 4 4
6 5 6 7 7 11 5 6 8 6 9 4 9 8 7 8 7 3 3 3 3 3 3 3 2 2 1 1 1 1 2 2 3 3 3 3 3 3 4 4 4 4 4 4
13 10 10 7 8 13 7 10 11 10 2 4 5 6 6 5 3 2 3 3 3 3 3 3 2 2 1 1 1 2 3 3 2 2 3 3 3 3 3 3 3 3 3 3
12 13 10 13 13 4 11 10 8 3 3 4 4 4 5 5 5 4 3 3 4 4 4 3 3 2 1 1 1 3 3 2 2 2 3 3 3 3 3 3 3 3 3 3
7 6 6 8 10 7 8 7 6 6 5 4 4 4 5 5 5 5 4 4 4 4 4 3 3 3 3 2 2 3 2 1 1 2 3 2 2 3 3 3 3 2 3 3
9 10 8 9 8 5 9 12 11 8 6 5 4 5 6 6 6 6 5 5 5 4 3 3 4 5 4 3 3 2 1 1 2 2 2 2 2 2 2 2 2 3 3 3
10 12 13 13 10 10 10 10 11 10 10 10 8 6 6 7 7 6 6 5 5 5 4 4 4 4 4 3 3 2 2 2 2 2 2 2 1 1 2 2 3 4 4 6
Wind_Direction
18 48 50 35 5 4 85 119 106 80 66 75 114 118 89 84 74 53 51 52 47 39 37 33 28 21 19 17 16 16 14 7 6 359 356 354 352 350 10 13 358 355 354 355
94 52 24 18 3 38 82 112 100 98 72 85 117 151 150 123 107 77 53 45 36 31 24 25 25 21 17 12 9 11 11 5 3 354 337 327 314 312 329 343 344 345 342 337
92 75 348 65 58 74 61 62 103 112 80 164 172 222 182 146 107 87 66 57 39 31 18 16 21 17 12 8 5 4 1 0 357 350 345 349 345 329 339 341 333 334 329 321
79 48 50 73 41 8 76 54 95 141 172 191 192 260 181 155 146 156 178 27 36 25 27 22 19 11 9 1 359 2 360 359 356 353 357 356 343 320 316 317 317 315 303 318
77 32 37 61 30 10 72 67 256 223 217 207 205 219 231 146 181 203 190 198 50 44 37 27 23 8 7 0 356 355 358 360 358 1 2 352 334 318 316 320 324 321 319 322
89 49 22 31 26 40 127 170 215 254 235 253 210 197 240 191 195 179 181 186 174 80 48 37 26 13 7 1 358 356 358 358 358 2 2 357 341 335 335 333 332 327 323 326
116 103 64 358 70 116 264 177 123 202 220 236 142 194 247 157 137 152 164 176 174 158 82 29 12 2 356 352 352 354 358 356 358 359 357 351 343 338 335 329 327 328 326 330
152 161 136 9 21 211 249 311 156 211 222 186 166 224 216 110 96 102 134 151 168 172 164 248 350 350 338 340 344 351 357 356 359 358 352 352 346 338 337 340 335 336 332 332
154 120 89 60 347 334 200 182 354 58 33 285 229 203 176 129 118 143 156 163 183 194 194 211 284 342 340 343 346 349 353 357 357 353 349 351 352 346 344 346 343 338 338 335
77 122 124 107 273 320 339 41 119 151 194 253 230 215 211 177 201 196 188 191 204 187 194 257 252 353 354 357 356 0 360 358 355 353 350 348 347 344 344 347 341 338 336 333
66 121 135 164 202 192 177 180 228 193 248 232 255 247 135 160 176 187 195 191 190 184 212 244 355 22 13 8 5 2 359 1 355 349 347 347 344 342 346 345 339 337 336 335
111 117 147 153 89 354 285 229 184 173 236 236 261 262 117 118 146 166 180 184 181 182 189 155 50 20 3 358 358 358 356 354 348 345 346 343 341 345 346 343 340 344 342 336
141 130 119 310 258 237 243 230 213 167 153 206 218 252 146 98 129 159 173 188 187 185 181 145 68 355 343 345 349 350 349 344 342 343 344 345 345 344 340 339 340 348 343 332
129 151 182 192 185 165 200 206 197 182 193 220 227 246 249 230 219 212 205 205 193 191 175 153 318 324 333 339 339 340 337 340 343 345 343 342 341 341 339 341 343 344 340 333
136 173 209 292 336 225 220 211 202 210 216 218 237 244 248 229 223 230 222 211 206 209 205 216 250 292 321 330 330 336 336 340 342 343 340 335 337 340 342 344 342 342 340 333
152 152 128 276 292 298 268 237 220 224 231 241 260 268 253 237 219 230 231 224 221 223 222 223 238 278 301 314 320 329 332 336 342 339 330 332 339 340 339 338 340 342 338 333
158 144 154 228 37 348 263 222 209 211 210 206 229 242 232 236 238 231 230 220 217 221 220 215 221 234 261 284 304 314 320 333 343 340 336 340 343 340 337 337 341 336 330 329
153 151 155 143 86 244 242 183 193 213 227 218 234 243 230 229 235 234 217 199 215 218 211 208 206 222 237 250 319 324 332 340 343 340 338 338 337 332 335 339 333 328 328 330
159 156 157 164 232 269 257 196 182 200 246 220 226 236 239 241 289 260 217 189 203 202 193 191 186 189 191 204 309 332 332 339 342 334 331 331 330 330 333 335 333 334 336 337
166 151 166 182 214 243 241 170 152 133 267 222 206 220 215 167 228 246 197 179 184 169 166 167 156 146 168 217 117 297 302 320 319 319 320 322 326 325 324 325 327 329 332 332
168 183 199 202 231 258 223 150 131 176 240 199 192 202 192 197 214 204 157 166 170 166 162 153 151 169 198 190 160 237 274 285 298 317 319 321 321 316 311 318 326 326 327 330
176 177 192 186 218 246 172 153 188 213 188 175 184 190 193 208 208 180 173 169 163 163 164 162 169 202 202 166 184 239 260 282 314 318 314 313 314 314 316 320 321 323 323 324
199 191 185 197 215 221 173 194 207 189 197 200 193 196 187 199 209 202 193 185 185 182 183 179 185 208 215 194 203 238 265 293 313 312 303 303 309 312 314 312 313 319 322 319
219 202 202 231 244 226 212 223 220 215 216 213 200 195 189 205 208 204 200 200 197 196 193 187 191 214 230 224 225 241 265 286 281 281 288 296 304 312 318 313 310 308 306 306
193 178 202 236 248 247 237 223 220 217 213 216 217 208 205 204 214 208 208 208 204 202 197 193 205 220 231 226 234 247 259 253 266 271 275 283 287 295 307 306 299 296 288 284
189 184 190 218 206 198 224 215 204 205 212 210 207 215 212 204 213 211 214 211 202 201 197 202 214 222 230 227 238 243 245 229 238 265 268 268 273 281 289 303 314 313 307 314